Location: Unspecified
(0.0000°N, 0.0000°E)
Time: 06:22:36
(UTC+00:00)

deb r/b Ablestar - Pass Details

Date: 14 March 2026
Orbit: 937 x 1853 km, 67.2° (Epoch: 14 April)

Event Time Altitude Azimuth Distance (km) Brightness Sun altitude
Rises 18:14:09 0° 357° (N) 5,089 ? -1.3°
Reaches altitude 10° 18:17:36 10° 5° (N) 4,155 ? -2.1°
Maximum altitude 18:27:33 41° 71° (ENE) 2,474 ? -4.6°
Drops below altitude 10° 18:37:13 10° 137° (SE) 4,065 ? -7.0°
Sets 18:40:30 0° 144° (SE) 4,971 ? -7.8°
